Corsicana, TX

3:04 PM CDT on June 27, 2017 (GMT -0500)
Campbell-Corsicana Municipal

Weather History for KCRS - January, 2014

Change the Weather History Date:

Wednesday, January 8, 2014

  Actual Average (KTYR) Record (KTYR)
Temperature  
Mean Temperature 44 °F -  
Max Temperature 48 °F 55 °F 78 °F (1978)
Min Temperature 39 °F 37 °F 8 °F (1976)
Degree Days  
Heating Degree Days 22    
Moisture  
Dew Point 41 °F    
Average Humidity 85    
Maximum Humidity 97    
Minimum Humidity 55    
Precipitation  
Precipitation 0.02 in - - ()
Sea Level Pressure  
Sea Level Pressure 30.21 in    
Wind  
Wind Speed 13 mph (SSE)    
Max Wind Speed 17 mph    
Max Gust Speed 24 mph    
Visibility 7 miles    
Events Rain    
Averages and records for this station are not official NWS values.
T = Trace of Precipitation, MM = Missing Value Source: NWS Daily Summary

Daily Weather History Graph

Daily Weather History Graph

Search for Another Location

Airport or City:

Trip Planner

Search our weather history database for the weather conditions in past years. The results will help you decide how hot, cold, wet, or windy it might be!

Date:

Astronomy

Jan. 08, 2014 Rise Set
Actual Time 7:27 AM CST 5:37 PM CST
Civil Twilight 7:00 AM CST 6:04 PM CST
Nautical Twilight 6:30 AM CST 6:34 PM CST
Astronomical Twilight 6:00 AM CST 7:04 PM CST
Moon 12:20 PM CST (1/8) 12:46 AM CST (1/8)
Length of Visible Light 11h 04m
Length of Day
10h 10m
First Quarter, 56% of the Moon is Illuminated
Jan 8
First Quarter
Jan 15
Full
Jan 23
Last Quarter
Jan 30
New
Feb 6
First Quarter

Hourly Weather History & Observations

Time (CST) Temp. Windchill Dew Point Humidity Pressure Visibility Wind Dir Wind Speed Gust Speed Precip Events Conditions
12:53 AM 39.9 °F 31.1 °F 25.0 °F 55% 30.33 in 10.0 mi South 17.3 mph - N/A   Overcast
1:03 AM 39.9 °F 31.1 °F 25.0 °F 55% 30.32 in 10.0 mi South 17.3 mph - N/A   Overcast
1:53 AM 39.9 °F 31.1 °F 27.0 °F 60% 30.32 in 10.0 mi South 17.3 mph - N/A   Overcast
2:53 AM 39.9 °F 31.1 °F 30.0 °F 68% 30.30 in 10.0 mi South 17.3 mph 24.2 mph 0.00 in Rain Light Rain
3:53 AM 39.0 °F 30.6 °F 30.0 °F 70% 30.30 in 10.0 mi South 15.0 mph - 0.00 in Rain Light Rain
4:53 AM 39.0 °F 30.6 °F 30.9 °F 73% 30.27 in 10.0 mi SSE 15.0 mph - 0.00 in Rain Light Rain
5:53 AM 39.0 °F 31.0 °F 32.0 °F 76% 30.27 in 10.0 mi SSE 13.8 mph - 0.00 in Rain Light Rain
6:53 AM 39.0 °F 31.0 °F 33.1 °F 79% 30.27 in 10.0 mi SSE 13.8 mph - 0.00 in Rain Light Rain
7:53 AM 39.0 °F 30.3 °F 32.0 °F 76% 30.27 in 10.0 mi SSE 16.1 mph - 0.00 in Rain Light Rain
8:53 AM 39.9 °F 31.4 °F 33.1 °F 77% 30.27 in 10.0 mi SSE 16.1 mph 21.9 mph 0.00 in Rain Light Rain
9:53 AM 42.1 °F 34.9 °F 35.1 °F 76% 30.28 in 10.0 mi SSE 13.8 mph - 0.00 in Rain Light Rain
10:53 AM 45.0 °F 38.2 °F 37.9 °F 76% 30.27 in 9.0 mi SSE 15.0 mph - 0.00 in Rain Light Rain
11:53 AM 46.0 °F 39.6 °F 39.0 °F 76% 30.22 in 10.0 mi SSE 15.0 mph - 0.00 in Rain Light Rain
12:53 PM 46.9 °F - 39.9 °F 77% 30.18 in 10.0 mi SSE 12.7 mph - 0.00 in Rain Light Rain
1:53 PM 48.0 °F - 43.0 °F 83% 30.16 in 9.0 mi SSE 11.5 mph - 0.00 in Rain Light Rain
2:53 PM 48.0 °F - 45.0 °F 89% 30.16 in 4.0 mi SSE 8.1 mph - 0.00 in   Overcast
3:19 PM 48.0 °F - 46.0 °F 93% 30.15 in 1.8 mi SE 5.8 mph - 0.00 in Rain Light Rain
3:35 PM 48.0 °F - 46.0 °F 93% 30.15 in 2.5 mi SE 9.2 mph - 0.00 in Rain Light Rain
3:53 PM 48.9 °F - 46.9 °F 93% 30.15 in 2.5 mi SSE 12.7 mph - 0.01 in Rain Light Rain
4:31 PM 48.0 °F - 46.9 °F 96% 30.15 in 3.0 mi SSE 10.4 mph - 0.00 in Rain Light Rain
4:45 PM 48.0 °F - 46.9 °F 96% 30.15 in 2.5 mi SE 12.7 mph - 0.00 in Rain Light Rain
4:53 PM 48.0 °F - 46.9 °F 96% 30.15 in 3.0 mi SSE 10.4 mph - 0.00 in Rain Light Rain
5:27 PM 48.0 °F - 46.0 °F 93% 30.15 in 4.0 mi SE 9.2 mph - 0.00 in   Overcast
5:38 PM 48.0 °F - 46.0 °F 93% 30.15 in 3.0 mi ESE 9.2 mph - 0.00 in Rain Light Rain
5:53 PM 46.9 °F - 46.0 °F 97% 30.16 in 4.0 mi SE 9.2 mph - 0.00 in   Overcast
6:30 PM 46.9 °F - 46.0 °F 97% 30.15 in 6.0 mi SE 10.4 mph - N/A   Overcast
6:37 PM 46.9 °F - 46.0 °F 97% 30.16 in 6.0 mi SE 10.4 mph - N/A   Overcast
6:53 PM 46.9 °F - 46.0 °F 97% 30.17 in 7.0 mi SE 9.2 mph - N/A   Overcast
7:35 PM 48.0 °F - 46.0 °F 93% 30.17 in 5.0 mi SE 9.2 mph - 0.01 in   Overcast
7:53 PM 48.0 °F - 46.0 °F 93% 30.19 in 6.0 mi SE 8.1 mph - 0.01 in   Overcast
8:09 PM 48.0 °F - 46.0 °F 93% 30.19 in 10.0 mi SE 6.9 mph - N/A   Overcast
8:53 PM 48.0 °F - 46.0 °F 93% 30.20 in 7.0 mi SE 8.1 mph - 0.00 in Rain Light Rain
9:53 PM 48.0 °F - 46.0 °F 93% 30.19 in 10.0 mi SE 10.4 mph - 0.00 in Rain Light Rain
10:21 PM 48.0 °F - 46.0 °F 93% 30.19 in 7.0 mi SE 9.2 mph - 0.00 in Rain Light Rain
10:53 PM 48.0 °F - 46.0 °F 93% 30.19 in 6.0 mi SE 9.2 mph - 0.00 in Rain Light Rain
11:40 PM 46.9 °F - 46.0 °F 97% 30.19 in 2.5 mi SE 6.9 mph - 0.00 in Rain Light Rain
11:53 PM 48.0 °F - 46.0 °F 93% 30.19 in 2.5 mi SE 6.9 mph - 0.00 in Rain Light Rain